Weather in Chechen-Aul

Russia / Chechen Republic     43°12′00″N   45°47′14″E
temp.,
°C
wind,
m/s
gust,
m/s
humid.,
%
clouds,
%
prec.,
mm/h
press.,
hPa
HPBL,
m
8 may, sat
sat800:00+13ssw11696 0.0 101927
03:00+12ssw11745 0.0 101811
06:00+14sse01725 0.0 101856
09:00+20ene354714 0.0 1016727
12:00+24ene5538100 0.0 10141193
15:00+24ene5539100 0.0 10131130
18:00+19ene345895 0.0 1013432
21:00+15ne117341 0.1 1013125
9 may, sun
sun900:00+14se11804 0.0 101128
03:00+13sse00813 0.0 101013
06:00+14sse007688 0.0 100967
09:00+20ne2154100 0.0 1008510
12:00+25ne324428 0.0 10061177
15:00+25nw6645100 0.0 10072007
18:00+12w81487100 4.3 1014956
21:00+8w71489100 9.4 10211114
10 may, mon
mon1000:00+7w71189100 1.7 10221094
03:00+8wsw61183100 2.0 10231092
06:00+8wsw597899 0.3 1023846
09:00+12w685788 0.3 10221374
12:00+13wnw564689 0.1 10211505
15:00+15wnw2338100 0.1 10192015
18:00+14wsw345196 0.0 1020814
21:00+11wsw256497 0.0 1022214
11 may, tue
tue1100:00+8sw127623 0.0 1021134
03:00+9n137091 0.0 1021240
06:00+10ene126888 0.0 1021384
09:00+13ne345579 0.0 10201225
12:00+16e444535 0.0 10171604
15:00+18ene554189 0.0 10161861
18:00+15ene5653100 0.0 1018814
21:00+11e25667 0.0 1019234
12 may, wed
wed1200:00+10ene01750 0.0 101837
03:00+9sw01800 0.0 101821
06:00+10s01760 0.0 1018164
09:00+15ene23573 0.0 1017906
12:00+19ene33478 0.0 10151361
15:00+21ene32467 0.0 10151458
18:00+18ene34582 0.0 1015606
21:00+13ese24760 0.0 1016157